User: anonymous
Location: Mentone
(34.5413°N, 85.5351°W)
Time: 03:25:26
(UTC-05:00)
Language:

Tiros 1 despin weight - Orbit

View from above orbital plane
View from above orbital plane
View from above satellite
View from above satellite

Ground track
Ground track

The orbit data is extracted from the following two-line orbital elements,

1 00115U 60002D   14274.29248576  .00002389  00000-0  33103-3 0  4817
2 00115 048.1650 215.2976 0036063 063.0862 066.2882 14.80832635903361
Epoch (UTC): 01 October 2014 07:01:10
Eccentricity: 0.0036063
inclination: 48.1650°
perigee height: 601 km
apogee height: 652 km
right ascension of ascending node: 215.2976°
argument of perigee: 63.0862°
revolutions per day: 14.80832635
mean anomaly at epoch: 66.2882°
orbit number at epoch: 90336

The dashed part of the orbit path shows where the satellite is in the earth's shadow,  

DLR